Location: Unspecified
(49.9820°N, 20.4363°E)
Time: 14:46:53
(UTC+02:00)

ISS - Pass Details

Date: 25 May 2018
Orbit: 402 x 407 km, 51.6° (Epoch: 22 May)

Event Time Altitude Azimuth Distance (km) Brightness Sun altitude
Rises 00:29:13 0° 284° (WNW) 2,322 0.2 -19.1°
Reaches altitude 10° 00:31:18 10° 286° (WNW) 1,460 -0.8 -19.1°
Maximum altitude 00:34:35 81° 13° (NNE) 413 -3.8 -19.1°
Enters shadow 00:35:39 39° 96° (E) 616 -3.0 -19.1°
